Watsonville, CA

3:24 PM PDT on March 22, 2017 (GMT -0700)
Watsonville Municipal

Weather History for KWVI - November, 2013

Change the Weather History Date:

Friday, November 1, 2013

  Actual Average Record
Temperature  
Mean Temperature 62 °F 58 °F  
Max Temperature 80 °F 70 °F 82 °F (1999)
Min Temperature 44 °F 46 °F 38 °F (2002)
Degree Days  
Heating Degree Days 3    
Month to date heating degree days 3  
Since 1 July heating degree days 377  
Cooling Degree Days 0    
Month to date cooling degree days 0  
Year to date cooling degree days 128  
Growing Degree Days 13 (Base 50)    
Moisture  
Dew Point 42 °F    
Average Humidity 57    
Maximum Humidity 93    
Minimum Humidity 21    
Precipitation  
Precipitation 0.00 in - 0.54 in (1964)
Month to date precipitation 0.00  
Year to date precipitation 2.76  
Since 1 July precipitation 0.37  
Sea Level Pressure  
Sea Level Pressure 30.07 in    
Wind  
Wind Speed 3 mph (NW)    
Max Wind Speed 9 mph    
Max Gust Speed 14 mph    
Visibility 10 miles    
Events      
T = Trace of Precipitation, MM = Missing Value Source: NWS Daily Summary

Daily Weather History Graph

Daily Weather History Graph

Search for Another Location

Airport or City:

Trip Planner

Search our weather history database for the weather conditions in past years. The results will help you decide how hot, cold, wet, or windy it might be!

Date:

Astronomy

Nov. 01, 2013 Rise Set
Actual Time 7:31 AM PDT 6:09 PM PDT
Civil Twilight 7:04 AM PDT 6:36 PM PDT
Nautical Twilight 6:33 AM PDT 7:06 PM PDT
Astronomical Twilight 6:03 AM PDT 7:37 PM PDT
Moon 5:31 AM PDT (11/1) 5:03 PM PDT (11/1)
Length of Visible Light 11h 31m
Length of Day
10h 37m
Waning Crescent, 4% of the Moon is Illuminated
Nov 1
Waning Crescent
Nov 3
New
Nov 9
First Quarter
Nov 17
Full
Nov 25
Last Quarter

Hourly Weather History & Observations

Time (PDT) Temp. Dew Point Humidity Pressure Visibility Wind Dir Wind Speed Gust Speed Precip Events Conditions
12:53 AM 50.0 °F 43.0 °F 77% 30.11 in 10.0 mi Calm Calm - N/A   Clear
1:53 AM 50.0 °F 42.1 °F 74% 30.11 in 10.0 mi NNW 3.5 mph - N/A   Clear
2:53 AM 50.0 °F 42.1 °F 74% 30.10 in 10.0 mi Calm Calm - N/A   Clear
3:53 AM 46.9 °F 41.0 °F 80% 30.10 in 10.0 mi NNW 3.5 mph - N/A   Clear
4:53 AM 46.9 °F 41.0 °F 80% 30.10 in 10.0 mi West 3.5 mph - N/A   Clear
5:53 AM 46.9 °F 41.0 °F 80% 30.11 in 10.0 mi NW 4.6 mph - N/A   Clear
6:53 AM 48.0 °F 41.0 °F 77% 30.12 in 10.0 mi Calm Calm - N/A   Clear
7:53 AM 50.0 °F 41.0 °F 71% 30.12 in 10.0 mi Calm Calm - N/A   Clear
8:53 AM 54.0 °F 42.1 °F 64% 30.13 in 10.0 mi Calm Calm - N/A   Clear
9:53 AM 62.1 °F 43.0 °F 50% 30.12 in 10.0 mi East 3.5 mph - N/A   Clear
10:53 AM 69.1 °F 43.0 °F 39% 30.12 in 10.0 mi East 3.5 mph - N/A   Clear
11:53 AM 73.9 °F 42.1 °F 32% 30.10 in 10.0 mi East 5.8 mph - N/A   Clear
12:53 PM 78.1 °F 39.0 °F 25% 30.08 in 10.0 mi East 5.8 mph - N/A   Clear
1:53 PM 79.0 °F 35.1 °F 20% 30.05 in 10.0 mi SSE 5.8 mph - N/A   Clear
2:53 PM 80.1 °F 39.0 °F 23% 30.04 in 10.0 mi SSW 8.1 mph - N/A   Clear
3:53 PM 75.9 °F 41.0 °F 29% 30.04 in 10.0 mi WSW 6.9 mph - N/A   Clear
4:53 PM 72.0 °F 37.9 °F 29% 30.03 in 10.0 mi SW 6.9 mph - N/A   Clear
5:53 PM 69.1 °F 37.9 °F 32% 30.02 in 10.0 mi Calm Calm - N/A   Clear
6:53 PM 57.0 °F 46.9 °F 69% 30.03 in 10.0 mi SSE 3.5 mph - N/A   Clear
7:53 PM 54.0 °F 51.1 °F 90% 30.04 in 10.0 mi Calm Calm - N/A   Clear
8:53 PM 53.1 °F 48.9 °F 86% 30.03 in 10.0 mi Calm Calm - N/A   Clear
9:53 PM 52.0 °F 46.0 °F 80% 30.03 in 10.0 mi NNW 3.5 mph - N/A   Clear
10:53 PM 50.0 °F 42.1 °F 74% 30.04 in 10.0 mi NW 3.5 mph - N/A   Clear
11:53 PM 51.1 °F 39.0 °F 63% 30.03 in 10.0 mi NW 4.6 mph - N/A   Clear